Terug naar catalogus

COSMOS 2514

GLONASS

ActiefNavigatieMEO
NORAD 41330·PAYLOAD·🇷🇺 Russia

Gelanceerd Feb 7, 2016 vanaf Plesetsk Cosmodrome

Loading…

Volgende Passages (komende 24 uur)

TLE

VersSource: CelesTrak SupGP

Epoch: Sep 13, 2026, 23:59 UTC

1 41330C 16008A   26256.99979167  .00000000  00000+0  00000+0 0  2568
2 41330  64.9639 309.9540 0013681 210.6156 168.1145  2.13102890    13

Volg COSMOS 2514 in realtime met AllMySat

Download on the App Store